Observations for Trim Market St
| Time | AQI | Temp °C | Hum % | Pres Pa | CO μg/m³ | H₂S μg/m³ | NO μg/m³ | NO₂ μg/m³ | O₃ μg/m³ | SO₂ μg/m³ | PM1 μg/m³ | PM2.5 μg/m³ | PM10 μg/m³ |
|---|---|---|---|---|---|---|---|---|---|---|---|---|---|
| Sunday 23 August 2026 | |||||||||||||
| 01:00 | 2 | 15.6 | 64 | 57,508 | 0.24 | 0 | 1.54 | 7.92 | 56.8 | 0 | 0.71 | 4.3 | 6.21 |
| 00:59 | 2 | 15.6 | 64 | 57,510 | 0.25 | 0 | 1.67 | 8.32 | 55.3 | 0 | 1.43 | 5.29 | 8.19 |
| 00:58 | 2 | 15.6 | 64 | 57,516 | 0.23 | 0 | 1.55 | 7.92 | 55.81 | 0 | 1.43 | 3.81 | 6.21 |
| 00:57 | 2 | 15.6 | 64 | 57,520 | 0.25 | 0 | 1.56 | 10.08 | 54.02 | 0 | 0.71 | 3.32 | 5.55 |
| 00:56 | 2 | 15.6 | 64 | 57,525 | 0.26 | 0 | 1.58 | 13.63 | 50.59 | 0 | 1.43 | 4.31 | 6.87 |
| 00:52 | 2 | 15.7 | 64 | 57,538 | 0.24 | 0 | 1.52 | 8.9 | 54.73 | 0 | 2.14 | 3.82 | 5.55 |
| 00:51 | 2 | 15.7 | 64 | 57,541 | 0.25 | 0 | 1.57 | 11.75 | 52.11 | 0 | 1.43 | 4.32 | 8.19 |
| 00:43 | 2 | 15.9 | 64 | 57,574 | 0.28 | 0 | 1.68 | 28.86 | 31.01 | 0 | 2.85 | 5.32 | 7.53 |
| 00:41 | 2 | 15.9 | 64 | 57,581 | 0.26 | 0 | 1.39 | 9.75 | 54.6 | 0 | 1.43 | 4.83 | 6.87 |
| 00:38 | 2 | 16 | 64 | 57,590 | 0.26 | 0 | 1.46 | 11.17 | 56.35 | 0 | 0.71 | 4.34 | 8.19 |
| 00:37 | 2 | 16 | 64 | 57,594 | 0.25 | 0 | 1.45 | 9.55 | 54.39 | 0 | 1.43 | 3.85 | 5.53 |
| 00:36 | 2 | 16 | 64 | 57,600 | 0.24 | 0 | 1.54 | 11.17 | 58.87 | 0 | 2.14 | 4.35 | 6.86 |
| 00:35 | 2 | 16 | 64 | 57,604 | 0.25 | 0 | 1.39 | 10.89 | 54.43 | 0 | 1.43 | 3.36 | 6.2 |
| 00:34 | 2 | 16 | 64 | 57,609 | 0.25 | 0 | 1.38 | 10.35 | 57.19 | 0 | 2.14 | 5.34 | 7.53 |
| 00:33 | 2 | 16 | 63 | 57,615 | 0.25 | 0 | 1.33 | 10.09 | 57.76 | 0 | 2.14 | 3.86 | 6.86 |
| 00:32 | 2 | 16 | 63 | 57,619 | 0.25 | 0 | 1.36 | 9.05 | 56.3 | 0 | 2.14 | 4.36 | 6.2 |
| 00:31 | 2 | 16 | 63 | 57,622 | 0.24 | 0 | 1.38 | 9.55 | 56.02 | 0 | 1.43 | 3.37 | 8.2 |
| 00:30 | 2 | 16.1 | 63 | 57,625 | 0.24 | 0 | 1.48 | 8.45 | 56.12 | 0 | 2.14 | 4.86 | 6.86 |
| 00:29 | 2 | 16.1 | 63 | 57,627 | 0.24 | 0 | 1.49 | 10.96 | 54.58 | 0 | 2.14 | 4.86 | 7.53 |
| 00:28 | 2 | 16.1 | 63 | 57,631 | 0.25 | 0 | 1.49 | 9.61 | 55.24 | 0 | 2.14 | 4.37 | 6.19 |